| time (UTC) | temp F | wind direction | speed MPH | gust MPH | rain 1hr in | rain 24hr in | rain mn in | humidity % | barometer mb |
| 20260503025014 | 64 | 165 | 0.0 | 3.0 | 0.00 | 0.00 | 0.00 | 64 | 1017.8 |
| 20260503024509 | 64 | 192 | 2.0 | 3.0 | 0.00 | 0.00 | 0.00 | 65 | 1017.6 |
| 20260503024007 | 65 | 166 | 2.0 | 3.0 | 0.00 | 0.00 | 0.00 | 63 | 1017.8 |
| 20260503023504 | 65 | 181 | 2.0 | 3.0 | 0.00 | 0.00 | 0.00 | 63 | 1017.8 |
| 20260503023001 | 65 | 180 | 0.0 | 2.0 | 0.00 | 0.00 | 0.00 | 63 | 1017.3 |
| 20260503022456 | 65 | 181 | 0.0 | 2.0 | 0.00 | 0.00 | 0.00 | 63 | 1017.4 |
| 20260503021951 | 66 | 184 | 0.0 | 3.0 | 0.00 | 0.00 | 0.00 | 60 | 1017.4 |
| 20260503021448 | 67 | 197 | 1.0 | 2.0 | 0.00 | 0.00 | 0.00 | 58 | 1017.7 |
| 20260503020946 | 67 | 198 | 1.0 | 3.0 | 0.00 | 0.00 | 0.00 | 54 | 1017.4 |
| 20260503020443 | 67 | 185 | 0.0 | 2.0 | 0.00 | 0.00 | 0.00 | 57 | 1017.3 |
| 20260503015939 | 67 | 155 | 1.0 | 2.0 | 0.00 | 0.00 | 0.00 | 59 | 1017.4 |
| 20260503015436 | 66 | 162 | 0.0 | 2.0 | 0.00 | 0.00 | 0.00 | 62 | 1017.3 |
| 20260503014932 | 67 | 77 | 0.0 | 1.0 | 0.00 | 0.00 | 0.00 | 63 | 1017.3 |
| 20260503014430 | 67 | 110 | 0.0 | 2.0 | 0.00 | 0.00 | 0.00 | 63 | 1017.2 |
| 20260503013928 | 68 | 142 | 0.0 | 1.0 | 0.00 | 0.00 | 0.00 | 62 | 1017.2 |
| 20260503013425 | 69 | 147 | 0.0 | 1.0 | 0.00 | 0.00 | 0.00 | 58 | 1017.1 |
| 20260503012922 | 69 | 129 | 0.0 | 2.0 | 0.00 | 0.00 | 0.00 | 57 | 1017.3 |
| 20260503012420 | 70 | 137 | 0.0 | 2.0 | 0.00 | 0.00 | 0.00 | 54 | 1017.3 |
| 20260503011915 | 70 | 139 | 0.0 | 2.0 | 0.00 | 0.00 | 0.00 | 52 | 1017.0 |
| 20260503011412 | 71 | 180 | 0.0 | 2.0 | 0.00 | 0.00 | 0.00 | 54 | 1017.0 |
| 20260503010910 | 71 | 149 | 0.0 | 1.0 | 0.00 | 0.00 | 0.00 | 52 | 1017.1 |
| 20260503010406 | 72 | 129 | 0.0 | 2.0 | 0.00 | 0.00 | 0.00 | 51 | 1017.0 |
| 20260503005903 | 74 | 186 | 0.0 | 1.0 | 0.00 | 0.00 | 0.00 | 45 | 1016.9 |
| 20260503005401 | 75 | 269 | 0.0 | 2.0 | 0.00 | 0.00 | 0.00 | 44 | 1017.1 |
| 20260503004857 | 77 | 269 | 0.0 | 2.0 | 0.00 | 0.00 | 0.00 | 41 | 1017.2 |
| 20260503004354 | 77 | 309 | 0.0 | 1.0 | 0.00 | 0.00 | 0.00 | 42 | 1017.2 |
| 20260503003852 | 77 | 284 | 0.0 | 2.0 | 0.00 | 0.00 | 0.00 | 41 | 1017.0 |
| 20260503003348 | 78 | 272 | 1.0 | 2.0 | 0.00 | 0.00 | 0.00 | 41 | 1017.0 |
| 20260503002845 | 78 | 299 | 2.0 | 2.0 | 0.00 | 0.00 | 0.00 | 40 | 1017.0 |
| 20260503002343 | 78 | 275 | 1.0 | 2.0 | 0.00 | 0.00 | 0.00 | 40 | 1017.1 |
| 20260503001839 | 77 | 289 | 1.0 | 3.0 | 0.00 | 0.00 | 0.00 | 40 | 1016.8 |
| 20260503001335 | 77 | 285 | 0.0 | 3.0 | 0.00 | 0.00 | 0.00 | 38 | 1016.9 |
| 20260503000833 | 77 | 279 | 2.0 | 3.0 | 0.00 | 0.00 | 0.00 | 39 | 1016.9 |
| 20260503000330 | 77 | 290 | 3.0 | 4.0 | 0.00 | 0.00 | 0.00 | 37 | 1016.8 |
| 20260502235827 | 77 | 308 | 3.0 | 5.0 | 0.00 | 0.00 | 0.00 | 38 | 1016.9 |
| 20260502235324 | 78 | 279 | 4.0 | 4.0 | 0.00 | 0.00 | 0.00 | 38 | 1016.8 |
| 20260502234821 | 78 | 230 | 2.0 | 2.0 | 0.00 | 0.00 | 0.00 | 35 | 1016.9 |
| 20260502234318 | 77 | 272 | 3.0 | 8.0 | 0.00 | 0.00 | 0.00 | 40 | 1017.0 |
| 20260502233814 | 77 | 7 | 3.0 | 6.0 | 0.00 | 0.00 | 0.00 | 37 | 1016.8 |
| 20260502233311 | 78 | 333 | 3.0 | 4.0 | 0.00 | 0.00 | 0.00 | 36 | 1016.9 |
| 20260502232808 | 78 | 346 | 1.0 | 4.0 | 0.00 | 0.00 | 0.00 | 35 | 1017.0 |
| 20260502232305 | 78 | 3 | 2.0 | 3.0 | 0.00 | 0.00 | 0.00 | 38 | 1016.9 |
| 20260502231801 | 77 | 321 | 4.0 | 5.0 | 0.00 | 0.00 | 0.00 | 37 | 1017.1 |
| 20260502231259 | 77 | 331 | 1.0 | 3.0 | 0.00 | 0.00 | 0.00 | 35 | 1017.3 |
| 20260502230757 | 77 | 349 | 3.0 | 5.0 | 0.00 | 0.00 | 0.00 | 35 | 1017.1 |
| 20260502230255 | 77 | 343 | 3.0 | 3.0 | 0.00 | 0.00 | 0.00 | 37 | 1017.1 |
| 20260502225751 | 76 | 298 | 2.0 | 4.0 | 0.00 | 0.00 | 0.00 | 38 | 1017.2 |
| 20260502225248 | 78 | 15 | 4.0 | 4.0 | 0.00 | 0.00 | 0.00 | 34 | 1017.1 |
| 20260502224744 | 77 | 51 | 1.0 | 4.0 | 0.00 | 0.00 | 0.00 | 39 | 1017.2 |
| 20260502224241 | 78 | 1 | 2.0 | 9.0 | 0.00 | 0.00 | 0.00 | 36 | 1017.1 |
| 20260502223738 | 78 | 309 | 4.0 | 8.0 | 0.00 | 0.00 | 0.00 | 35 | 1017.2 |
| 20260502223236 | 78 | 324 | 2.0 | 7.0 | 0.00 | 0.00 | 0.00 | 35 | 1017.1 |
| 20260502222734 | 78 | 357 | 3.0 | 4.0 | 0.00 | 0.00 | 0.00 | 35 | 1017.1 |
| 20260502222230 | 77 | 330 | 2.0 | 7.0 | 0.00 | 0.00 | 0.00 | 34 | 1017.2 |
| 20260502221726 | 78 | 65 | 4.0 | 5.0 | 0.00 | 0.00 | 0.00 | 32 | 1017.3 |
| 20260502221223 | 77 | 354 | 3.0 | 6.0 | 0.00 | 0.00 | 0.00 | 35 | 1017.3 |
| 20260502220719 | 78 | 342 | 3.0 | 6.0 | 0.00 | 0.00 | 0.00 | 35 | 1017.4 |
| 20260502220216 | 79 | 231 | 2.0 | 4.0 | 0.00 | 0.00 | 0.00 | 34 | 1017.5 |
| 20260502215713 | 78 | 284 | 7.0 | 7.0 | 0.00 | 0.00 | 0.00 | 34 | 1017.4 |
| 20260502215210 | 78 | 309 | 1.0 | 5.0 | 0.00 | 0.00 | 0.00 | 34 | 1017.4 |
| 20260502214707 | 78 | 302 | 3.0 | 4.0 | 0.00 | 0.00 | 0.00 | 34 | 1017.5 |
| 20260502214204 | 77 | 5 | 3.0 | 6.0 | 0.00 | 0.00 | 0.00 | 37 | 1017.7 |
| 20260502213701 | 77 | 329 | 3.0 | 7.0 | 0.00 | 0.00 | 0.00 | 36 | 1017.5 |
| 20260502213158 | 77 | 358 | 2.0 | 5.0 | 0.00 | 0.00 | 0.00 | 35 | 1017.5 |
| 20260502212657 | 78 | 350 | 2.0 | 7.0 | 0.00 | 0.00 | 0.00 | 39 | 1017.7 |
| 20260502212155 | 77 | 358 | 3.0 | 9.0 | 0.00 | 0.00 | 0.00 | 38 | 1017.7 |
| 20260502211650 | 77 | 219 | 2.0 | 3.0 | 0.00 | 0.00 | 0.00 | 34 | 1018.1 |
| 20260502211148 | 76 | 264 | 6.0 | 6.0 | 0.00 | 0.00 | 0.00 | 35 | 1018.0 |
| 20260502210645 | 77 | 308 | 3.0 | 5.0 | 0.00 | 0.00 | 0.00 | 38 | 1018.0 |
| 20260502210142 | 77 | 298 | 4.0 | 9.0 | 0.00 | 0.00 | 0.00 | 36 | 1018.1 |
| 20260502205639 | 78 | 340 | 2.0 | 9.0 | 0.00 | 0.00 | 0.00 | 38 | 1018.2 |
| 20260502205135 | 77 | 306 | 5.0 | 7.0 | 0.00 | 0.00 | 0.00 | 34 | 1018.3 |
| 20260502204632 | 76 | 345 | 3.0 | 9.0 | 0.00 | 0.00 | 0.00 | 37 | 1018.4 |
| 20260502204130 | 77 | 298 | 7.0 | 9.0 | 0.00 | 0.00 | 0.00 | 36 | 1018.2 |
| 20260502203626 | 77 | 352 | 3.0 | 6.0 | 0.00 | 0.00 | 0.00 | 35 | 1018.3 |
| 20260502203124 | 76 | 9 | 3.0 | 5.0 | 0.00 | 0.00 | 0.00 | 33 | 1018.3 |
| 20260502202619 | 76 | 253 | 6.0 | 6.0 | 0.00 | 0.00 | 0.00 | 32 | 1018.5 |
| 20260502202118 | 76 | 354 | 4.0 | 9.0 | 0.00 | 0.00 | 0.00 | 36 | 1018.3 |
| 20260502201614 | 76 | 309 | 3.0 | 6.0 | 0.00 | 0.00 | 0.00 | 40 | 1018.5 |
| 20260502201110 | 76 | 324 | 3.0 | 5.0 | 0.00 | 0.00 | 0.00 | 37 | 1018.3 |
| 20260502200606 | 75 | 347 | 3.0 | 5.0 | 0.00 | 0.00 | 0.00 | 37 | 1018.6 |
| 20260502200104 | 76 | 61 | 5.0 | 7.0 | 0.00 | 0.00 | 0.00 | 40 | 1018.5 |
| 20260502195601 | 75 | 351 | 3.0 | 7.0 | 0.00 | 0.00 | 0.00 | 36 | 1018.5 |
| 20260502195057 | 75 | 349 | 4.0 | 8.0 | 0.00 | 0.00 | 0.00 | 36 | 1018.3 |
| 20260502194549 | 75 | 327 | 3.0 | 11.0 | 0.00 | 0.00 | 0.00 | 37 | 1018.6 |
| 20260502194045 | 75 | 323 | 3.0 | 12.0 | 0.00 | 0.00 | 0.00 | 37 | 1018.6 |
| 20260502193542 | 76 | 327 | 4.0 | 6.0 | 0.00 | 0.00 | 0.00 | 39 | 1018.7 |
| 20260502193039 | 75 | 43 | 5.0 | 5.0 | 0.00 | 0.00 | 0.00 | 38 | 1018.7 |
| 20260502192534 | 74 | 6 | 3.0 | 5.0 | 0.00 | 0.00 | 0.00 | 36 | 1018.7 |
| 20260502192032 | 75 | 322 | 2.0 | 6.0 | 0.00 | 0.00 | 0.00 | 38 | 1018.8 |
| 20260502191529 | 74 | 106 | 3.0 | 9.0 | 0.00 | 0.00 | 0.00 | 36 | 1018.9 |
| 20260502191027 | 74 | 3 | 4.0 | 9.0 | 0.00 | 0.00 | 0.00 | 39 | 1018.8 |
| 20260502190524 | 74 | 286 | 11.0 | 12.0 | 0.00 | 0.00 | 0.00 | 40 | 1018.8 |
| 20260502190021 | 74 | 290 | 4.0 | 7.0 | 0.00 | 0.00 | 0.00 | 43 | 1018.8 |
| 20260502185516 | 74 | 293 | 3.0 | 5.0 | 0.00 | 0.00 | 0.00 | 43 | 1018.7 |
| 20260502185013 | 74 | 55 | 9.0 | 9.0 | 0.00 | 0.00 | 0.00 | 39 | 1018.8 |
| 20260502184508 | 74 | 4 | 4.0 | 9.0 | 0.00 | 0.00 | 0.00 | 38 | 1019.1 |
| 20260502184005 | 74 | 48 | 2.0 | 7.0 | 0.00 | 0.00 | 0.00 | 41 | 1019.0 |
| 20260502183501 | 73 | 2 | 4.0 | 10.0 | 0.00 | 0.00 | 0.00 | 39 | 1019.2 |
| 20260502182956 | 73 | 359 | 3.0 | 7.0 | 0.00 | 0.00 | 0.00 | 40 | 1019.4 |
| 20260502182452 | 73 | 45 | 3.0 | 9.0 | 0.00 | 0.00 | 0.00 | 39 | 1019.5 |
| 20260502181948 | 74 | 305 | 7.0 | 10.0 | 0.00 | 0.00 | 0.00 | 41 | 1019.7 |
| 20260502181447 | 74 | 330 | 0.0 | 3.0 | 0.00 | 0.00 | 0.00 | 40 | 1019.7 |
| 20260502180945 | 73 | 8 | 2.0 | 4.0 | 0.00 | 0.00 | 0.00 | 46 | 1019.7 |
| 20260502180442 | 73 | 32 | 2.0 | 7.0 | 0.00 | 0.00 | 0.00 | 45 | 1019.8 |
| 20260502170401 | 71 | 33 | 3.0 | 8.0 | 0.00 | 0.00 | 0.00 | 47 | 1020.6 |
| 20260502164348 | 70 | 8 | 4.0 | 6.0 | 0.00 | 0.00 | 0.00 | 51 | 1020.7 |
| 20260502163844 | 71 | 272 | 2.0 | 7.0 | 0.00 | 0.00 | 0.00 | 51 | 1020.8 |
| 20260502163340 | 71 | 6 | 5.0 | 7.0 | 0.00 | 0.00 | 0.00 | 49 | 1020.6 |
| 20260502162838 | 71 | 305 | 4.0 | 5.0 | 0.00 | 0.00 | 0.00 | 50 | 1020.6 |
| 20260502162334 | 70 | 32 | 2.0 | 7.0 | 0.00 | 0.00 | 0.00 | 52 | 1020.5 |
| 20260502161831 | 69 | 329 | 4.0 | 7.0 | 0.00 | 0.00 | 0.00 | 51 | 1020.6 |
| 20260502161321 | 70 | 329 | 5.0 | 6.0 | 0.00 | 0.00 | 0.00 | 49 | 1020.4 |
| 20260502160820 | 70 | 13 | 2.0 | 7.0 | 0.00 | 0.00 | 0.00 | 51 | 1020.7 |
| 20260502160318 | 69 | 309 | 4.0 | 8.0 | 0.00 | 0.00 | 0.00 | 55 | 1020.6 |
| 20260502152248 | 68 | 315 | 4.0 | 9.0 | 0.00 | 0.00 | 0.00 | 60 | 1020.3 |
| 20260502151745 | 68 | 0 | 4.0 | 8.0 | 0.00 | 0.00 | 0.00 | 65 | 1020.3 |
| 20260502151242 | 67 | 316 | 5.0 | 8.0 | 0.00 | 0.00 | 0.00 | 65 | 1020.4 |
| 20260502150740 | 67 | 311 | 5.0 | 6.0 | 0.00 | 0.00 | 0.00 | 68 | 1020.5 |
| 20260502150236 | 66 | 302 | 6.0 | 12.0 | 0.00 | 0.00 | 0.00 | 69 | 1020.2 |
| 20260502130619 | 56 | 316 | 3.0 | 4.0 | 0.00 | 0.00 | 0.00 | 82 | 1019.4 |
| 20260502130116 | 55 | 330 | 0.0 | 3.0 | 0.00 | 0.00 | 0.00 | 84 | 1019.3 |
| 20260502123602 | 52 | 320 | 3.0 | 5.0 | 0.00 | 0.00 | 0.00 | 88 | 1019.0 |
| 20260502123058 | 51 | 297 | 4.0 | 5.0 | 0.00 | 0.00 | 0.00 | 89 | 1019.1 |
| 20260502122555 | 52 | 314 | 2.0 | 5.0 | 0.00 | 0.00 | 0.00 | 88 | 1018.8 |
| 20260502122052 | 52 | 257 | 0.0 | 3.0 | 0.00 | 0.00 | 0.00 | 87 | 1018.9 |
| 20260502121549 | 51 | 55 | 0.0 | 1.0 | 0.00 | 0.00 | 0.00 | 88 | 1018.9 |
| 20260502121047 | 51 | 169 | 0.0 | 3.0 | 0.00 | 0.00 | 0.00 | 89 | 1018.9 |
| 20260502120543 | 51 | 269 | 0.0 | 3.0 | 0.00 | 0.00 | 0.00 | 89 | 1019.1 |
| 20260502115538 | 50 | 214 | 0.0 | 2.0 | 0.00 | 0.00 | 0.00 | 90 | 1018.3 |
| 20260502115033 | 50 | 248 | 0.0 | 2.0 | 0.00 | 0.00 | 0.00 | 91 | 1018.3 |
| 20260502114530 | 50 | 186 | 2.0 | 2.0 | 0.00 | 0.00 | 0.00 | 91 | 1018.3 |
| 20260502114027 | 50 | 205 | 2.0 | 2.0 | 0.00 | 0.00 | 0.00 | 91 | 1018.3 |
| 20260502113525 | 50 | 187 | 1.0 | 3.0 | 0.00 | 0.00 | 0.00 | 89 | 1018.4 |
| 20260502113024 | 51 | 229 | 0.0 | 3.0 | 0.00 | 0.00 | 0.00 | 88 | 1018.2 |
| 20260502112521 | 51 | 246 | 0.0 | 2.0 | 0.00 | 0.00 | 0.00 | 88 | 1017.9 |
| 20260502112018 | 51 | 300 | 0.0 | 2.0 | 0.00 | 0.00 | 0.00 | 87 | 1017.9 |
| 20260502111515 | 52 | 292 | 2.0 | 3.0 | 0.00 | 0.00 | 0.00 | 87 | 1018.0 |
| 20260502111013 | 52 | 303 | 0.0 | 3.0 | 0.00 | 0.00 | 0.00 | 87 | 1017.7 |
| 20260502110510 | 52 | 283 | 1.0 | 2.0 | 0.00 | 0.00 | 0.00 | 87 | 1017.7 |
| 20260502110008 | 52 | 253 | 1.0 | 3.0 | 0.00 | 0.00 | 0.00 | 86 | 1017.6 |
| 20260502105505 | 52 | 255 | 2.0 | 3.0 | 0.00 | 0.00 | 0.00 | 87 | 1017.4 |
| 20260502105002 | 51 | 286 | 1.0 | 3.0 | 0.00 | 0.00 | 0.00 | 89 | 1017.4 |
| 20260502104459 | 51 | 295 | 0.0 | 2.0 | 0.00 | 0.00 | 0.00 | 90 | 1017.6 |
| 20260502103956 | 51 | 314 | 2.0 | 3.0 | 0.00 | 0.00 | 0.00 | 89 | 1017.5 |
| 20260502103454 | 51 | 299 | 0.0 | 3.0 | 0.00 | 0.00 | 0.00 | 90 | 1017.5 |
| 20260502102951 | 51 | 299 | 0.0 | 2.0 | 0.00 | 0.00 | 0.00 | 89 | 1017.5 |
| 20260502102448 | 52 | 352 | 0.0 | 3.0 | 0.00 | 0.00 | 0.00 | 86 | 1017.2 |
| 20260502101944 | 52 | 287 | 1.0 | 3.0 | 0.00 | 0.00 | 0.00 | 86 | 1017.4 |
| 20260502101443 | 52 | 319 | 1.0 | 2.0 | 0.00 | 0.00 | 0.00 | 87 | 1017.2 |
| 20260502100941 | 51 | 284 | 1.0 | 2.0 | 0.00 | 0.00 | 0.00 | 89 | 1017.2 |
| 20260502100440 | 51 | 76 | 0.0 | 1.0 | 0.00 | 0.00 | 0.00 | 89 | 1017.3 |
| 20260502091414 | 51 | 283 | 3.0 | 4.0 | 0.00 | 0.00 | 0.00 | 90 | 1017.3 |
| 20260502090911 | 51 | 278 | 2.0 | 3.0 | 0.00 | 0.00 | 0.00 | 91 | 1017.2 |
| 20260502090408 | 50 | 269 | 1.0 | 3.0 | 0.00 | 0.00 | 0.00 | 93 | 1017.0 |
| 20260502071303 | 51 | 325 | 0.0 | 2.0 | 0.00 | 0.00 | 0.00 | 95 | 1017.4 |
| 20260502070801 | 51 | 314 | 0.0 | 2.0 | 0.00 | 0.00 | 0.00 | 95 | 1017.4 |
| 20260502070258 | 51 | 326 | 0.0 | 1.0 | 0.00 | 0.00 | 0.00 | 94 | 1017.2 |
| 20260502065757 | 52 | 66 | 0.0 | 1.0 | 0.00 | 0.00 | 0.00 | 94 | 1017.4 |
| 20260502065255 | 52 | 315 | 0.0 | 1.0 | 0.00 | 0.00 | 0.00 | 93 | 1017.5 |
| 20260502064753 | 52 | 177 | 0.0 | 3.0 | 0.00 | 0.00 | 0.00 | 93 | 1017.0 |
| 20260502064250 | 52 | 243 | 0.0 | 2.0 | 0.00 | 0.00 | 0.00 | 92 | 1017.2 |
| 20260502063747 | 53 | 335 | 1.0 | 2.0 | 0.00 | 0.00 | 0.00 | 93 | 1017.4 |
| 20260502063245 | 53 | 19 | 0.0 | 2.0 | 0.00 | 0.00 | 0.00 | 92 | 1017.2 |
| 20260502062742 | 53 | 335 | 0.0 | 2.0 | 0.00 | 0.00 | 0.00 | 91 | 1017.3 |
| 20260502062239 | 53 | 345 | 0.0 | 2.0 | 0.00 | 0.00 | 0.00 | 91 | 1017.5 |
| 20260502061738 | 53 | 348 | 0.0 | 1.0 | 0.00 | 0.00 | 0.00 | 92 | 1017.2 |
| 20260502061235 | 53 | 5 | 1.0 | 2.0 | 0.00 | 0.00 | 0.00 | 91 | 1017.4 |
| 20260502060730 | 53 | 77 | 1.0 | 2.0 | 0.00 | 0.00 | 0.00 | 91 | 1017.3 |
| 20260502060226 | 53 | 31 | 1.0 | 2.0 | 0.00 | 0.00 | 0.00 | 91 | 1017.3 |
| 20260502055724 | 53 | 88 | 2.0 | 2.0 | 0.00 | 0.00 | 0.00 | 90 | 1017.4 |
| 20260502055221 | 54 | 95 | 0.0 | 2.0 | 0.00 | 0.00 | 0.00 | 89 | 1017.3 |
| 20260502054715 | 54 | 305 | 0.0 | 2.0 | 0.00 | 0.00 | 0.00 | 89 | 1017.4 |
| 20260502054212 | 55 | 301 | 2.0 | 3.0 | 0.00 | 0.00 | 0.00 | 88 | 1017.5 |
| 20260502053710 | 54 | 299 | 3.0 | 4.0 | 0.00 | 0.00 | 0.00 | 90 | 1017.7 |
| 20260502053206 | 54 | 298 | 2.0 | 3.0 | 0.00 | 0.00 | 0.00 | 90 | 1017.4 |
| 20260502052704 | 54 | 293 | 2.0 | 4.0 | 0.00 | 0.00 | 0.00 | 93 | 1017.6 |
| 20260502052202 | 54 | 321 | 2.0 | 3.0 | 0.00 | 0.00 | 0.00 | 92 | 1017.5 |
| 20260502051655 | 53 | 336 | 0.0 | 2.0 | 0.00 | 0.00 | 0.00 | 94 | 1017.3 |
| 20260502051152 | 53 | 0 | 0.0 | 1.0 | 0.00 | 0.00 | 0.00 | 93 | 1017.1 |
| 20260502050648 | 53 | 326 | 0.0 | 1.0 | 0.00 | 0.00 | 0.00 | 92 | 1017.3 |
| 20260502050140 | 54 | 92 | 2.0 | 3.0 | 0.00 | 0.00 | 0.00 | 91 | 1017.1 |
| 20260502045636 | 54 | 99 | 2.0 | 2.0 | 0.00 | 0.02 | 0.02 | 91 | 1017.2 |
| 20260502045134 | 54 | 34 | 0.0 | 2.0 | 0.00 | 0.02 | 0.02 | 90 | 1017.0 |
| 20260502044630 | 55 | 55 | 0.0 | 0.0 | 0.00 | 0.02 | 0.02 | 89 | 1017.1 |
| 20260502044126 | 55 | 55 | 0.0 | 0.0 | 0.00 | 0.02 | 0.02 | 88 | 1017.2 |
| 20260502043624 | 55 | 66 | 0.0 | 1.0 | 0.00 | 0.02 | 0.02 | 86 | 1017.2 |
| 20260502043121 | 55 | 41 | 1.0 | 2.0 | 0.00 | 0.02 | 0.02 | 85 | 1017.1 |
| 20260502042615 | 55 | 293 | 0.0 | 1.0 | 0.00 | 0.02 | 0.02 | 87 | 1017.4 |
| 20260502042113 | 54 | 308 | 0.0 | 1.0 | 0.00 | 0.02 | 0.02 | 90 | 1017.1 |
| 20260502041610 | 54 | 29 | 0.0 | 0.0 | 0.00 | 0.02 | 0.02 | 90 | 1017.1 |
| 20260502041107 | 54 | 29 | 0.0 | 1.0 | 0.00 | 0.02 | 0.02 | 90 | 1017.0 |
| 20260502040604 | 54 | 32 | 0.0 | 1.0 | 0.00 | 0.02 | 0.02 | 90 | 1017.2 |
| 20260502035557 | 55 | 320 | 1.0 | 2.0 | 0.00 | 0.02 | 0.02 | 88 | 1017.0 |
| 20260502035054 | 56 | 326 | 0.0 | 2.0 | 0.00 | 0.02 | 0.02 | 85 | 1016.9 |
| 20260502034552 | 56 | 339 | 0.0 | 2.0 | 0.00 | 0.02 | 0.02 | 84 | 1017.0 |
| 20260502034050 | 55 | 305 | 1.0 | 2.0 | 0.00 | 0.02 | 0.02 | 88 | 1017.0 |
| 20260502033548 | 55 | 13 | 1.0 | 2.0 | 0.00 | 0.02 | 0.02 | 87 | 1016.9 |
| 20260502033045 | 55 | 352 | 0.0 | 1.0 | 0.00 | 0.02 | 0.02 | 87 | 1016.6 |
| 20260502032541 | 56 | 69 | 0.0 | 3.0 | 0.00 | 0.02 | 0.02 | 85 | 1016.8 |
| 20260502032038 | 57 | 101 | 2.0 | 3.0 | 0.00 | 0.02 | 0.02 | 83 | 1016.8 |
| 20260502031536 | 56 | 53 | 0.0 | 2.0 | 0.00 | 0.02 | 0.02 | 82 | 1016.7 |
| 20260502031033 | 57 | 11 | 0.0 | 1.0 | 0.00 | 0.02 | 0.02 | 82 | 1016.8 |
| 20260502030532 | 57 | 309 | 0.0 | 1.0 | 0.00 | 0.02 | 0.02 | 83 | 1016.8 |
| 20260502030030 | 57 | 316 | 0.0 | 1.0 | 0.00 | 0.02 | 0.02 | 84 | 1016.8 |
| 20260502025527 | 57 | 329 | 0.0 | 2.0 | 0.00 | 0.02 | 0.02 | 82 | 1016.6 |